Wind_Speed
22 21 19 18 16 16 17 15 11 5 9 18 21 25 30 34 35 36 37 37 35 34 34 33 33 33 33 33 33 32 32 32 32 32 33 34 36 37 40 43 46 50 52 54
18 17 15 13 9 5 3 1 5 9 18 23 24 27 30 32 32 33 33 32 30 29 29 29 29 30 29 29 29 29 29 29 29 30 31 33 36 39 42 46 49 51 52 54
17 18 17 15 10 7 10 14 17 20 23 24 28 29 29 29 29 29 28 27 26 25 25 26 26 25 25 25 25 24 25 25 27 29 31 35 38 41 45 48 50 52 54 58
17 17 18 14 12 13 17 21 23 25 26 28 28 27 26 25 24 24 23 22 21 21 21 20 20 20 20 20 20 21 23 24 27 30 34 37 40 43 46 49 51 54 57 60
14 15 15 15 16 18 19 21 22 24 24 24 24 23 21 20 19 19 18 17 16 15 15 14 15 16 17 18 19 21 23 26 30 33 36 39 42 45 48 50 53 56 59 61
10 11 13 14 15 17 17 19 20 20 20 20 20 18 17 16 15 15 14 13 12 12 12 13 14 15 17 18 20 23 26 29 32 35 38 41 44 46 48 51 54 57 59 60
6 8 9 9 10 10 12 14 14 15 15 15 15 14 13 12 12 11 11 11 11 11 12 13 15 16 18 20 23 25 28 31 34 37 39 41 44 46 50 53 55 57 57 59
3 4 5 5 6 6 6 7 8 9 10 10 11 10 10 10 10 10 10 11 11 12 13 15 16 18 20 22 25 27 30 32 35 37 39 42 45 48 51 53 54 55 57 60
5 3 3 3 3 3 4 5 5 7 8 9 10 10 11 11 11 11 11 11 12 13 14 15 17 19 22 24 26 29 31 33 35 37 40 43 46 49 51 52 53 55 58 62
9 7 5 3 2 3 4 4 5 6 7 9 10 10 10 10 10 11 11 11 12 13 15 16 18 20 23 25 27 29 31 33 36 39 42 45 47 49 50 51 54 57 61 65
14 11 9 6 5 4 4 4 5 5 6 7 7 8 9 9 9 10 10 11 11 12 14 16 19 21 24 26 28 30 32 35 38 41 43 45 46 47 49 52 57 61 65 69
16 14 12 9 7 6 6 5 6 6 6 7 7 8 8 8 8 8 9 9 11 13 16 19 21 24 26 28 30 32 34 37 39 42 43 44 45 48 51 56 61 65 70 75
16 15 13 11 9 8 8 8 8 8 8 8 8 7 7 7 7 8 9 11 14 17 20 22 25 26 28 30 32 34 36 39 41 42 42 43 46 50 55 60 66 71 75 80
16 15 14 13 11 11 10 10 10 10 10 9 8 8 8 8 9 11 13 16 19 21 24 26 27 29 30 32 34 36 38 39 40 40 42 45 49 54 58 63 68 73 78 83
16 15 15 14 14 13 12 11 11 10 9 9 9 9 9 10 12 15 18 20 23 25 27 28 29 30 32 33 35 36 37 38 39 41 44 49 54 59 64 68 73 77 81 86
16 15 15 14 13 12 12 11 10 10 10 10 10 11 13 15 17 19 22 24 26 27 28 29 30 31 32 34 35 35 36 37 40 44 49 54 58 64 68 72 76 81 85 85
15 14 14 14 13 13 12 12 11 11 11 12 13 15 17 19 22 23 25 26 27 27 28 29 30 31 33 33 34 34 36 40 44 49 54 59 64 68 72 76 80 84 84 78
13 12 12 13 14 14 14 14 13 14 15 16 18 19 21 23 24 25 26 27 27 27 28 29 30 32 32 32 33 36 40 45 49 54 59 64 68 72 75 80 84 83 76 65
14 14 14 14 15 15 16 16 16 17 18 20 21 22 23 25 25 26 27 27 26 27 28 30 30 30 30 32 36 41 45 50 55 59 64 68 71 75 80 83 83 76 64 54
17 16 16 16 16 16 17 18 18 19 20 21 22 24 25 25 26 26 26 26 27 28 29 29 29 30 33 37 41 46 50 55 60 64 68 71 75 80 83 82 75 63 53 45
19 18 18 18 18 18 19 20 20 21 22 23 24 24 25 25 26 26 26 27 28 28 28 28 30 33 37 41 46 51 55 60 64 67 71 75 80 83 82 74 63 53 44 34
19 20 21 21 22 22 22 23 23 24 24 24 24 24 25 25 26 27 27 27 26 26 28 30 33 37 42 46 51 56 60 63 67 70 75 79 83 81 73 63 53 44 34 23
21 22 23 23 24 24 24 24 24 24 24 24 24 24 25 25 26 26 26 25 25 27 30 33 37 42 47 52 56 60 63 66 70 74 79 83 81 73 62 53 44 34 23 12
22 23 23 23 24 24 24 24 24 24 24 24 24 24 25 26 25 25 24 25 27 30 34 38 42 47 52 56 60 63 65 69 74 79 82 80 73 63 53 44 34 23 11 3
23 24 24 24 24 23 23 23 23 23 23 23 24 24 24 24 24 24 25 28 31 34 38 43 47 52 56 59 62 65 68 73 79 82 80 72 63 54 45 34 22 10 3 10
25 25 24 24 23 23 22 23 23 23 23 24 24 23 23 23 24 26 28 31 35 39 43 47 51 55 59 61 64 67 72 78 82 80 72 62 54 45 34 21 7 4 12 16
26 25 24 23 23 23 23 23 23 23 23 23 23 23 23 24 26 29 32 36 39 43 47 51 54 58 60 63 67 71 77 81 79 72 62 53 44 32 18 5 6 14 18 18
Wind_Direction
344 342 328 314 300 285 276 273 266 224 179 163 167 169 172 174 178 184 190 196 201 206 213 220 227 232 236 239 243 248 253 258 264 271 276 280 283 287 292 295 297 299 301 303
6 1 357 354 344 328 314 214 150 148 145 153 156 163 166 168 174 181 187 192 197 204 212 219 225 229 232 237 242 248 254 262 269 275 279 283 288 292 295 297 299 301 303 304
22 25 28 27 39 82 114 123 127 133 141 145 146 152 157 162 168 174 180 187 194 202 210 216 221 225 230 236 244 253 261 268 274 278 283 288 292 294 297 299 301 303 304 305
37 42 44 55 75 101 117 121 125 129 133 137 142 147 150 155 163 172 179 186 194 202 209 215 222 230 238 247 255 262 268 273 278 283 287 291 294 297 298 300 302 304 305 306
52 60 66 77 88 101 112 118 122 128 134 138 140 144 149 156 164 172 179 185 193 202 211 221 231 241 249 255 262 267 273 278 283 287 291 294 296 298 299 301 303 304 305 306
69 77 83 87 92 99 108 114 124 128 133 137 141 147 154 163 172 180 187 195 203 213 224 235 243 250 256 263 268 274 279 283 288 290 293 295 297 299 301 302 304 305 306 307
82 85 89 94 98 105 113 122 132 137 141 145 151 158 166 175 185 194 203 212 221 231 241 248 253 259 265 270 276 280 284 288 290 292 294 296 298 300 301 303 304 306 307 308
140 106 99 103 110 124 129 142 152 159 164 169 174 180 190 199 208 215 222 229 236 244 251 256 262 268 274 278 282 285 287 289 291 294 296 298 299 301 303 304 306 308 309 310
203 184 151 137 138 152 167 177 187 196 199 201 203 207 212 218 223 228 233 239 246 253 259 265 271 276 280 283 285 287 289 291 294 296 297 299 301 303 305 307 308 309 310 311
219 221 215 208 203 200 194 190 195 202 207 210 214 219 223 228 231 236 242 248 255 262 269 275 279 282 285 287 289 291 292 294 296 298 300 302 304 306 308 309 309 310 312 314
226 228 232 238 236 221 206 202 200 201 204 209 215 220 224 229 236 244 251 257 264 272 279 283 286 288 290 291 293 294 295 297 299 301 304 306 308 308 309 310 311 313 314 316
229 231 236 245 242 234 229 226 222 221 220 221 226 229 233 238 242 249 255 263 274 282 286 289 292 293 293 293 294 296 298 300 303 305 307 308 309 310 312 313 315 316 317 319
230 231 233 235 236 240 238 237 240 239 237 235 234 233 233 236 244 254 265 276 283 288 290 292 293 294 295 296 297 299 302 304 306 308 308 309 311 313 315 316 318 319 319 320
230 231 232 234 238 241 242 244 246 242 238 233 229 229 234 243 257 269 277 283 287 290 292 294 296 296 297 299 301 303 305 307 308 309 310 313 315 316 317 318 319 319 320 321
230 231 235 239 241 242 243 242 240 236 228 225 229 235 246 260 271 279 284 288 292 294 295 297 297 298 300 302 304 306 307 308 310 312 314 316 318 318 319 320 320 320 321 322
231 236 239 236 233 233 232 227 224 223 225 229 238 251 264 273 280 285 289 293 295 296 298 299 300 302 304 306 307 308 309 312 314 316 317 318 319 320 320 321 321 322 322 323
230 230 225 222 222 222 221 223 227 230 237 247 258 268 276 282 286 290 293 295 297 298 300 301 303 305 307 308 309 311 313 316 317 318 319 320 320 321 321 322 322 322 323 324
216 216 216 218 221 225 229 234 240 247 255 263 270 277 283 287 290 293 295 297 299 300 302 305 306 307 308 310 313 315 317 318 319 320 320 321 321 321 322 322 322 323 324 324
214 216 219 222 227 233 239 246 253 260 267 272 278 283 287 290 293 296 298 300 301 303 306 307 308 309 311 314 316 318 320 320 321 321 322 322 322 322 322 322 323 324 324 323
218 222 225 229 234 241 247 254 261 267 273 277 282 286 289 292 295 297 300 302 304 306 307 308 309 311 315 318 319 321 322 322 322 323 323 323 323 323 323 323 323 323 323 322
223 226 231 237 244 251 256 262 267 272 276 280 283 286 289 292 295 299 302 304 305 306 306 308 312 315 319 321 322 323 323 324 324 324 323 323 323 323 323 324 323 323 322 321
232 236 240 246 251 257 262 266 270 274 277 280 282 285 288 292 296 299 302 303 304 305 308 312 316 319 322 323 324 324 325 325 324 324 324 323 323 324 324 324 323 323 322 319
239 243 248 253 257 261 265 269 272 274 276 278 281 284 288 292 296 299 300 301 304 308 312 316 320 322 323 324 325 325 325 325 324 324 324 324 324 325 325 324 323 322 319 311
243 246 250 255 259 262 266 268 270 272 274 278 281 286 289 292 295 296 299 303 307 312 316 319 321 323 324 325 326 326 326 325 324 325 325 325 325 325 325 324 323 320 311 234
248 251 254 257 259 262 265 267 269 272 275 279 283 286 288 291 293 297 301 306 311 315 318 320 322 324 325 326 326 326 325 325 325 325 326 326 326 325 325 325 323 315 198 160
250 252 254 256 259 261 264 266 270 273 276 279 281 284 286 290 294 299 305 309 313 316 319 321 323 325 326 326 326 326 325 326 326 326 327 326 326 327 327 327 325 159 153 150
251 252 254 257 259 260 262 265 268 271 273 275 278 281 286 292 298 304 308 311 315 317 320 323 325 326 326 326 326 326 326 326 327 327 327 327 328 329 332 346 138 146 147 143
Height
5558 5551 5546 5542 5539 5537 5536 5536 5536 5538 5541 5547 5552 5558 5566 5575 5585 5596 5606 5615 5622 5629 5636 5641 5645 5649 5652 5654 5656 5657 5658 5659 5659 5659 5658 5657 5654 5651 5648 5644 5639 5633 5627 5621
5558 5552 5547 5543 5539 5538 5537 5537 5538 5540 5544 5549 5555 5562 5570 5579 5588 5597 5605 5613 5620 5627 5632 5637 5640 5644 5646 5648 5650 5651 5652 5652 5652 5652 5650 5648 5646 5643 5638 5633 5628 5622 5616 5609
5559 5555 5551 5547 5545 5543 5542 5542 5543 5546 5551 5555 5561 5567 5574 5582 5590 5598 5606 5612 5618 5624 5628 5632 5636 5638 5640 5642 5644 5645 5645 5646 5645 5644 5642 5640 5637 5633 5628 5623 5617 5611 5604 5597
5563 5560 5556 5556 5551 5550 5549 5549 5551 5554 5558 5563 5568 5574 5580 5587 5594 5600 5607 5612 5617 5622 5626 5629 5631 5634 5636 5638 5639 5639 5639 5639 5638 5636 5634 5631 5627 5623 5618 5612 5606 5599 5592 5584
5567 5565 5563 5562 5559 5558 5558 5559 5561 5563 5567 5571 5575 5581 5587 5592 5598 5603 5608 5612 5616 5620 5623 5626 5628 5630 5631 5632 5633 5633 5632 5631 5630 5628 5625 5622 5618 5613 5607 5601 5595 5587 5580 5572
5571 5570 5569 5570 5568 5567 5569 5569 5571 5573 5576 5579 5583 5588 5592 5596 5600 5604 5608 5612 5615 5617 5620 5622 5624 5626 5626 5627 5627 5626 5626 5624 5622 5620 5616 5612 5608 5602 5597 5590 5583 5576 5568 5559
5574 5574 5574 5574 5574 5575 5577 5577 5578 5580 5582 5585 5588 5591 5595 5598 5601 5604 5607 5610 5612 5615 5617 5618 5620 5620 5621 5621 5621 5620 5618 5616 5614 5611 5607 5602 5597 5592 5586 5580 5572 5565 5556 5547
5576 5577 5579 5577 5578 5579 5580 5580 5582 5583 5585 5587 5590 5593 5595 5598 5601 5603 5605 5607 5609 5611 5612 5614 5614 5615 5615 5615 5614 5612 5610 5608 5605 5601 5597 5593 5587 5582 5576 5568 5561 5552 5544 5534
5578 5580 5579 5578 5579 5580 5581 5582 5583 5584 5586 5588 5590 5592 5594 5596 5598 5600 5602 5604 5606 5607 5608 5609 5609 5610 5609 5608 5607 5605 5602 5599 5596 5592 5588 5583 5577 5571 5564 5556 5548 5540 5531 5521
5576 5577 5578 5578 5579 5580 5581 5582 5583 5584 5586 5587 5589 5591 5593 5594 5596 5598 5599 5601 5602 5603 5604 5604 5604 5604 5603 5601 5599 5597 5594 5591 5587 5583 5578 5573 5567 5560 5552 5544 5536 5527 5518 5508
5574 5576 5577 5578 5579 5580 5581 5582 5583 5584 5585 5587 5588 5589 5591 5593 5594 5595 5597 5598 5599 5599 5600 5599 5599 5598 5596 5594 5592 5589 5586 5582 5578 5574 5568 5562 5556 5548 5540 5532 5523 5514 5504 5493
5572 5575 5576 5578 5578 5579 5580 5581 5583 5583 5584 5586 5587 5588 5589 5591 5592 5593 5594 5595 5596 5596 5595 5594 5593 5592 5589 5587 5584 5581 5578 5573 5569 5564 5558 5552 5545 5537 5528 5520 5509 5498 5487 5475
5570 5571 5573 5575 5577 5578 5579 5580 5581 5582 5583 5584 5585 5586 5588 5589 5590 5591 5592 5592 5592 5591 5590 5589 5587 5585 5582 5580 5576 5573 5569 5565 5560 5554 5548 5541 5534 5526 5517 5507 5494 5482 5470 5456
5566 5569 5571 5572 5574 5576 5577 5578 5579 5580 5581 5582 5583 5585 5586 5587 5588 5588 5589 5588 5588 5586 5585 5583 5581 5578 5575 5572 5569 5565 5560 5555 5550 5544 5537 5531 5523 5514 5505 5495 5484 5469 5454 5439
5563 5566 5568 5570 5571 5573 5574 5575 5576 5578 5579 5580 5581 5583 5584 5585 5585 5585 5585 5584 5582 5581 5578 5576 5573 5571 5568 5564 5560 5556 5551 5546 5540 5534 5527 5519 5511 5502 5491 5480 5467 5454 5440 5424
5560 5562 5564 5566 5568 5570 5571 5573 5574 5576 5577 5578 5580 5581 5581 5581 5581 5580 5579 5578 5576 5574 5571 5569 5566 5563 5560 5556 5552 5547 5542 5536 5530 5524 5516 5508 5498 5488 5477 5464 5450 5436 5422 5408
5557 5559 5561 5563 5566 5567 5569 5571 5573 5574 5575 5576 5577 5578 5578 5577 5576 5575 5573 5571 5569 5567 5565 5562 5559 5556 5552 5548 5543 5538 5533 5527 5520 5513 5504 5495 5485 5473 5461 5448 5434 5420 5404 5390
5555 5557 5559 5562 5564 5565 5567 5569 5570 5572 5572 5573 5573 5573 5573 5572 5570 5569 5567 5565 5563 5560 5558 5555 5552 5548 5543 5539 5534 5529 5524 5517 5509 5501 5491 5481 5470 5457 5445 5432 5418 5403 5389 5376
5552 5555 5557 5559 5561 5563 5565 5566 5567 5568 5568 5569 5568 5568 5567 5566 5564 5562 5560 5558 5556 5554 5551 5547 5543 5539 5535 5531 5526 5520 5514 5506 5497 5488 5477 5466 5454 5441 5429 5415 5401 5387 5375 5365
5550 5552 5554 5556 5558 5559 5561 5562 5562 5563 5563 5563 5563 5562 5561 5559 5558 5556 5554 5552 5550 5547 5543 5540 5536 5532 5528 5523 5517 5510 5502 5494 5484 5474 5463 5451 5438 5425 5412 5398 5384 5373 5363 5355
5546 5548 5550 5552 5553 5555 5556 5556 5557 5557 5557 5557 5556 5555 5554 5553 5551 5550 5548 5546 5543 5540 5537 5533 5529 5525 5520 5514 5507 5499 5491 5481 5471 5460 5448 5436 5423 5409 5394 5381 5370 5360 5353 5346
5542 5544 5545 5547 5548 5549 5550 5550 5551 5551 5551 5550 5550 5549 5548 5547 5545 5543 5541 5539 5536 5533 5530 5526 5522 5517 5511 5504 5496 5487 5478 5468 5457 5445 5433 5420 5406 5392 5378 5366 5357 5349 5344 5340
5537 5539 5540 5541 5542 5543 5544 5544 5544 5544 5544 5544 5543 5542 5542 5540 5539 5537 5535 5533 5530 5527 5523 5519 5514 5508 5501 5493 5484 5475 5465 5454 5442 5430 5417 5403 5389 5376 5364 5354 5347 5341 5337 5335
5531 5533 5534 5535 5536 5537 5537 5538 5538 5538 5538 5538 5537 5536 5536 5534 5533 5531 5529 5527 5524 5520 5516 5511 5505 5498 5490 5482 5472 5462 5451 5440 5428 5415 5400 5386 5372 5361 5352 5344 5338 5333 5332 5332
5525 5527 5528 5529 5530 5530 5531 5531 5532 5532 5532 5531 5531 5530 5529 5528 5527 5525 5523 5520 5517 5512 5507 5502 5495 5487 5479 5470 5460 5449 5438 5426 5413 5399 5384 5371 5359 5349 5341 5335 5330 5328 5329 5331
5519 5520 5522 5523 5523 5524 5525 5525 5526 5526 5526 5525 5525 5524 5523 5522 5521 5519 5516 5513 5509 5504 5498 5492 5484 5476 5467 5458 5448 5437 5425 5411 5397 5383 5369 5357 5347 5339 5332 5328 5326 5327 5330 5333
5512 5513 5515 5516 5517 5518 5518 5519 5519 5520 5520 5519 5519 5518 5517 5516 5514 5512 5508 5505 5500 5495 5489 5482 5474 5465 5456 5446 5435 5423 5411 5397 5382 5369 5357 5347 5338 5332 5328 5326 5327 5329 5333 5337